GW1126 Weather Reports


Display with metric or nautical units.
time (UTC)temp
F
wind
direction
speed
MPH
gust
MPH
rain 1hr
in
rain 24hr
in
rain mn
in
humidity
%
barometer
mb
20260507135750 47 257 0.0 0.0 0.00 0.00 0.00 67 1014.6
20260507135248 47 276 3.0 7.0 0.00 0.00 0.00 68 1014.4
20260507134744 46 288 0.0 0.0 0.00 0.00 0.00 69 1014.6
20260507134240 46 258 6.0 9.0 0.00 0.00 0.00 69 1014.7
20260507133736 46 249 4.0 7.0 0.00 0.00 0.00 70 1014.5
20260507133233 45 292 3.0 7.0 0.00 0.00 0.00 71 1014.6
20260507132731 45 260 0.0 1.0 0.00 0.00 0.00 72 1014.7
20260507132227 44 275 0.0 0.0 0.00 0.00 0.00 73 1014.5
20260507131724 44 269 1.0 2.0 0.00 0.00 0.00 73 1014.5
20260507131221 44 257 0.0 0.0 0.00 0.00 0.00 74 1014.5
20260507130718 43 287 1.0 3.0 0.00 0.00 0.00 75 1014.4
20260507130216 42 264 0.0 2.0 0.00 0.00 0.00 77 1014.4
20260507125714 41 284 0.0 0.0 0.00 0.00 0.00 79 1014.5
20260507125212 41 235 0.0 0.0 0.00 0.00 0.00 79 1014.3
20260507124708 40 241 0.0 0.0 0.00 0.00 0.00 80 1014.4
20260507124205 40 290 0.0 0.0 0.00 0.00 0.00 80 1014.3
20260507123703 39 252 0.0 1.0 0.00 0.00 0.00 80 1014.4
20260507123200 39 275 0.0 0.0 0.00 0.00 0.00 81 1014.0
20260507122655 39 258 1.0 1.0 0.00 0.00 0.00 81 1014.5
20260507122151 39 252 0.0 0.0 0.00 0.00 0.00 81 1014.1
20260507121648 39 246 0.0 0.0 0.00 0.00 0.00 81 1014.1
20260507121143 38 242 0.0 0.0 0.00 0.00 0.00 82 1014.3
20260507120640 38 209 0.0 0.0 0.00 0.00 0.00 82 1014.3
20260507120137 38 241 0.0 0.0 0.00 0.00 0.00 82 1014.3
20260507115633 38 253 0.0 0.0 0.00 0.00 0.00 82 1014.3
20260507115128 38 236 0.0 0.0 0.00 0.00 0.00 82 1014.3
20260507114625 38 248 0.0 0.0 0.00 0.00 0.00 82 1014.3
20260507114122 38 207 0.0 0.0 0.00 0.00 0.00 82 1014.4
20260507113619 38 230 0.0 0.0 0.00 0.00 0.00 82 1014.4
20260507113116 38 242 0.0 0.0 0.00 0.00 0.00 82 1014.3
20260507112614 38 224 0.0 0.0 0.00 0.00 0.00 82 1014.4
20260507112111 39 226 0.0 0.0 0.00 0.00 0.00 81 1014.7
20260507111608 39 221 0.0 0.0 0.00 0.00 0.00 81 1014.4
20260507111104 39 236 0.0 1.0 0.00 0.00 0.00 81 1014.5
20260507110601 39 277 0.0 0.0 0.00 0.00 0.00 81 1014.4
20260507110057 39 246 0.0 2.0 0.00 0.00 0.00 81 1014.4
20260507105554 39 263 1.0 3.0 0.00 0.00 0.00 80 1014.6
20260507105050 39 275 1.0 3.0 0.00 0.00 0.00 81 1014.5
20260507104548 39 262 1.0 5.0 0.00 0.00 0.00 81 1014.7
20260507104044 39 205 0.0 0.0 0.00 0.00 0.00 81 1014.8
20260507103540 39 274 0.0 0.0 0.00 0.00 0.00 81 1014.7
20260507103037 39 218 0.0 0.0 0.00 0.00 0.00 81 1014.7
20260507102534 39 271 0.0 0.0 0.00 0.00 0.00 81 1014.8
20260507102031 39 271 0.0 0.0 0.00 0.00 0.00 80 1014.8
20260507101525 39 231 0.0 0.0 0.00 0.00 0.00 80 1014.9
20260507101022 39 223 0.0 2.0 0.00 0.00 0.00 79 1014.9
20260507100519 40 229 0.0 0.0 0.00 0.00 0.00 79 1015.0
20260507100017 40 227 4.0 8.0 0.00 0.00 0.00 79 1015.1
20260507095515 40 203 2.0 3.0 0.00 0.00 0.00 78 1015.2
20260507095011 40 282 0.0 0.0 0.00 0.00 0.00 78 1015.3
20260507094508 40 223 0.0 0.0 0.00 0.00 0.00 77 1015.1
20260507094005 40 193 0.0 0.0 0.00 0.00 0.00 77 1015.4
20260507093502 41 213 0.0 0.0 0.00 0.00 0.00 77 1015.4
20260507093001 41 257 0.0 1.0 0.00 0.00 0.00 76 1015.1
20260507092456 41 214 1.0 3.0 0.00 0.00 0.00 76 1015.2
20260507091953 41 235 0.0 0.0 0.00 0.00 0.00 76 1015.4
20260507091450 41 194 0.0 0.0 0.00 0.00 0.00 75 1015.6
20260507090946 41 248 0.0 1.0 0.00 0.00 0.00 75 1015.4
20260507090442 41 222 0.0 0.0 0.00 0.00 0.00 76 1015.6
20260507085939 41 236 0.0 0.0 0.00 0.00 0.00 76 1015.8
20260507085436 41 208 0.0 0.0 0.00 0.00 0.00 76 1015.9
20260507084933 41 240 1.0 2.0 0.00 0.00 0.00 76 1015.9
20260507084430 41 207 0.0 0.0 0.00 0.00 0.00 76 1015.9
20260507083927 41 239 6.0 9.0 0.00 0.00 0.00 76 1015.9
20260507083423 42 247 0.0 0.0 0.00 0.00 0.00 76 1016.0
20260507082919 42 261 5.0 9.0 0.00 0.00 0.00 76 1016.2
20260507082415 42 242 0.0 0.0 0.00 0.00 0.00 76 1016.1
20260507081913 42 230 0.0 0.0 0.00 0.00 0.00 76 1016.4
20260507081408 42 267 2.0 3.0 0.00 0.00 0.00 76 1016.2
20260507080905 42 265 0.0 1.0 0.00 0.00 0.00 77 1016.4
20260507080402 41 226 0.0 1.0 0.00 0.00 0.00 78 1016.4
20260507075857 41 267 1.0 5.0 0.00 0.00 0.00 79 1016.6
20260507075353 41 248 0.0 0.0 0.00 0.00 0.00 79 1016.8
20260507074850 41 235 1.0 2.0 0.00 0.00 0.00 79 1016.8
20260507074347 41 240 5.0 7.0 0.00 0.00 0.00 79 1017.0
20260507073844 41 219 0.0 0.0 0.00 0.00 0.00 79 1016.5
20260507073341 41 274 0.0 0.0 0.00 0.00 0.00 79 1017.0
20260507072838 41 241 1.0 2.0 0.00 0.00 0.00 80 1017.0
20260507072336 41 272 0.0 1.0 0.00 0.00 0.00 80 1017.0
20260507071833 41 224 0.0 0.0 0.00 0.00 0.00 80 1016.8
20260507071330 41 256 1.0 3.0 0.00 0.00 0.00 80 1017.1
20260507070826 42 213 1.0 2.0 0.00 0.00 0.00 80 1017.0
20260507070324 42 222 2.0 2.0 0.00 0.00 0.00 80 1017.3
20260507065820 42 209 0.0 0.0 0.00 0.00 0.00 80 1017.2
20260507065317 42 227 1.0 2.0 0.00 0.00 0.00 79 1016.9
20260507064814 42 220 0.0 0.0 0.00 0.00 0.00 79 1017.1
20260507064313 42 253 0.0 1.0 0.00 0.00 0.00 79 1017.2
20260507063810 42 240 0.0 1.0 0.00 0.00 0.00 79 1017.2
20260507063307 42 206 0.0 1.0 0.00 0.00 0.00 78 1016.9
20260507062804 42 187 4.0 6.0 0.00 0.00 0.00 78 1017.1
20260507062301 42 211 0.0 2.0 0.00 0.00 0.00 78 1017.4
20260507061759 42 246 0.0 0.0 0.00 0.00 0.00 79 1017.5
20260507061256 43 207 0.0 1.0 0.00 0.00 0.00 78 1017.3
20260507060754 43 222 2.0 7.0 0.00 0.00 0.00 78 1017.4
20260507060250 43 210 4.0 6.0 0.00 0.00 0.00 78 1017.7
20260507055747 43 223 4.0 6.0 0.00 0.00 0.00 77 1017.4
20260507055242 43 212 0.0 1.0 0.00 0.00 0.00 77 1017.5
20260507054739 43 189 6.0 11.0 0.00 0.00 0.00 76 1017.5
20260507054236 44 191 3.0 8.0 0.00 0.00 0.00 76 1017.3
20260507053733 44 170 1.0 5.0 0.00 0.00 0.00 75 1017.8
20260507053231 44 174 1.0 3.0 0.00 0.00 0.00 75 1017.9
20260507052730 44 246 4.0 8.0 0.00 0.00 0.00 75 1017.7
20260507052225 44 205 1.0 3.0 0.00 0.00 0.00 74 1017.8
20260507051724 44 245 1.0 2.0 0.00 0.00 0.00 74 1017.9
20260507051220 44 242 2.0 5.0 0.00 0.00 0.00 74 1017.8
20260507050717 44 264 2.0 3.0 0.00 0.00 0.00 73 1018.1
20260507050214 44 193 0.0 1.0 0.00 0.00 0.00 73 1018.1
20260507045711 45 203 0.0 0.0 0.00 0.00 0.00 73 1017.9
20260507045207 45 226 2.0 5.0 0.00 0.00 0.00 72 1018.2
20260507044704 45 167 3.0 6.0 0.00 0.00 0.00 72 1018.2
20260507044201 45 222 3.0 6.0 0.00 0.00 0.00 72 1018.3
20260507043657 45 244 2.0 6.0 0.00 0.00 0.00 72 1018.4
20260507043154 44 208 4.0 7.0 0.00 0.00 0.00 72 1018.4
20260507042650 44 199 0.0 2.0 0.00 0.00 0.00 73 1018.6
20260507042145 44 216 1.0 2.0 0.00 0.00 0.00 72 1018.6
20260507041643 45 223 0.0 1.0 0.00 0.00 0.00 71 1018.7
20260507041138 45 200 0.0 1.0 0.00 0.00 0.00 71 1018.7
20260507040636 45 219 2.0 3.0 0.00 0.00 0.00 70 1018.6
20260507040132 45 229 4.0 5.0 0.00 0.00 0.00 69 1018.7
20260507035628 45 214 3.0 7.0 0.00 0.00 0.00 68 1018.9
20260507035124 45 219 1.0 2.0 0.00 0.00 0.00 67 1018.6
20260507034621 45 223 1.0 2.0 0.00 0.00 0.00 67 1018.6
20260507034119 45 220 1.0 3.0 0.00 0.00 0.00 66 1018.6
20260507033617 46 209 0.0 0.0 0.00 0.00 0.00 64 1018.6
20260507033114 46 215 0.0 0.0 0.00 0.00 0.00 63 1018.7
20260507032611 46 235 0.0 2.0 0.00 0.00 0.00 62 1018.9
20260507032107 46 252 1.0 3.0 0.00 0.00 0.00 61 1018.7
20260507031604 47 204 0.0 0.0 0.00 0.00 0.00 60 1018.9
20260507031101 47 191 1.0 2.0 0.00 0.00 0.00 59 1018.7
20260507030557 47 209 0.0 1.0 0.00 0.00 0.00 58 1018.9
20260507030056 47 221 0.0 0.0 0.00 0.00 0.00 56 1018.9
20260507025552 47 230 0.0 1.0 0.00 0.00 0.00 56 1019.1
20260507025049 47 235 0.0 0.0 0.00 0.00 0.00 55 1018.9
20260507024547 47 215 0.0 2.0 0.00 0.00 0.00 54 1018.9
20260507024044 48 216 1.0 5.0 0.00 0.00 0.00 53 1018.9
20260507023539 48 264 0.0 0.0 0.00 0.00 0.00 52 1018.8
20260507023038 48 209 0.0 0.0 0.00 0.00 0.00 51 1018.9
20260507022534 48 242 0.0 0.0 0.00 0.00 0.00 50 1018.7
20260507022029 49 217 0.0 0.0 0.00 0.00 0.00 49 1018.7
20260507021525 49 205 0.0 0.0 0.00 0.00 0.00 48 1018.6
20260507021022 49 270 1.0 2.0 0.00 0.00 0.00 47 1018.6
20260507020520 50 199 0.0 0.0 0.00 0.00 0.00 46 1018.5
20260507020016 50 211 0.0 0.0 0.00 0.00 0.00 45 1018.6
20260507015515 51 194 0.0 0.0 0.00 0.00 0.00 44 1018.8
20260507015012 51 236 0.0 0.0 0.00 0.00 0.00 43 1018.6
20260507014508 52 226 1.0 2.0 0.00 0.00 0.00 42 1018.5
20260507014004 52 255 0.0 0.0 0.00 0.00 0.00 41 1018.6
20260507013501 53 261 0.0 0.0 0.00 0.00 0.00 41 1018.4
20260507012958 53 268 0.0 0.0 0.00 0.00 0.00 40 1018.6
20260507012455 53 278 0.0 0.0 0.00 0.00 0.00 39 1018.7
20260507011951 53 272 0.0 0.0 0.00 0.00 0.00 39 1018.7
20260507011448 54 185 0.0 0.0 0.00 0.00 0.00 38 1018.5
20260507010944 54 202 0.0 0.0 0.00 0.00 0.00 38 1018.6
20260507010439 54 214 3.0 6.0 0.00 0.00 0.00 37 1018.5
20260507005936 54 253 0.0 0.0 0.00 0.00 0.00 38 1018.7
20260507005433 54 255 1.0 2.0 0.00 0.00 0.00 37 1018.7
20260507004930 54 264 0.0 0.0 0.00 0.00 0.00 38 1018.6
20260507004426 54 261 0.0 0.0 0.00 0.00 0.00 38 1018.7
20260507003924 54 242 1.0 5.0 0.00 0.00 0.00 36 1018.8
20260507003419 54 258 5.0 6.0 0.00 0.00 0.00 35 1018.8
20260507002914 55 263 0.0 0.0 0.00 0.00 0.00 35 1018.9
20260507002410 55 296 3.0 5.0 0.00 0.00 0.00 35 1019.0
20260507001908 55 285 5.0 7.0 0.00 0.00 0.00 33 1018.8
20260507001405 56 262 6.0 7.0 0.00 0.00 0.00 33 1019.0
20260507000902 56 253 7.0 9.0 0.00 0.00 0.00 32 1018.8
20260507000358 55 267 2.0 7.0 0.00 0.00 0.00 36 1018.9
20260506235853 55 258 0.0 0.0 0.00 0.00 0.00 35 1018.8
20260506235351 54 268 0.0 0.0 0.00 0.00 0.00 37 1018.9
20260506234846 54 221 0.0 0.0 0.00 0.00 0.00 36 1018.9
20260506234344 54 278 3.0 5.0 0.00 0.00 0.00 37 1019.3
20260506233842 55 256 1.0 3.0 0.00 0.00 0.00 33 1019.3
20260506233337 56 261 1.0 3.0 0.00 0.00 0.00 35 1019.4
20260506232835 56 269 1.0 5.0 0.00 0.00 0.00 34 1019.5
20260506232330 56 246 3.0 3.0 0.00 0.00 0.00 33 1019.0
20260506231827 58 324 0.0 0.0 0.00 0.00 0.00 36 1019.1
20260506231324 56 207 2.0 5.0 0.00 0.00 0.00 35 1019.0
20260506230822 57 184 1.0 3.0 0.00 0.00 0.00 35 1018.9
20260506230319 57 262 6.0 8.0 0.00 0.00 0.00 34 1019.0
20260506225814 57 287 3.0 7.0 0.00 0.00 0.00 34 1019.4
20260506225312 57 259 3.0 3.0 0.00 0.00 0.00 34 1019.0
20260506224809 55 264 0.0 0.0 0.00 0.00 0.00 36 1019.1
20260506224306 54 287 5.0 7.0 0.00 0.00 0.00 33 1019.4
20260506223802 55 228 4.0 7.0 0.00 0.00 0.00 33 1019.3
20260506223257 56 256 0.0 0.0 0.00 0.00 0.00 32 1019.1
20260506222755 55 287 0.0 0.0 0.00 0.00 0.00 32 1019.5
20260506222250 55 303 5.0 7.0 0.00 0.00 0.00 32 1019.6
20260506221748 55 277 1.0 3.0 0.00 0.00 0.00 31 1019.7
20260506221246 56 308 3.0 7.0 0.00 0.00 0.00 30 1019.6
20260506220743 57 250 8.0 9.0 0.00 0.00 0.00 30 1019.6
20260506220238 58 267 0.0 0.0 0.00 0.00 0.00 28 1019.8
20260506215735 57 266 0.0 0.0 0.00 0.00 0.00 31 1019.7
20260506215230 57 291 1.0 1.0 0.00 0.00 0.00 32 1020.1
20260506214722 57 214 0.0 0.0 0.00 0.00 0.00 32 1019.9
20260506214219 55 238 2.0 5.0 0.00 0.00 0.00 34 1020.1
20260506213717 55 318 0.0 0.0 0.00 0.00 0.00 35 1019.9
20260506213214 55 344 0.0 0.0 0.00 0.00 0.00 36 1020.4
20260506212711 53 250 0.0 0.0 0.00 0.00 0.00 37 1020.1
20260506212206 54 256 0.0 0.0 0.00 0.00 0.00 36 1020.4
20260506211702 54 286 0.0 0.0 0.00 0.00 0.00 38 1020.3
20260506211158 54 247 2.0 5.0 0.00 0.00 0.00 37 1020.4
20260506210655 55 256 5.0 7.0 0.00 0.00 0.00 37 1020.2
20260506210152 55 245 0.0 0.0 0.00 0.00 0.00 36 1020.4
20260506205650 57 257 4.0 10.0 0.00 0.00 0.00 34 1020.6
20260506205144 55 266 0.0 0.0 0.00 0.00 0.00 35 1020.8
20260506204642 57 242 1.0 2.0 0.00 0.00 0.00 36 1020.6
20260506204139 56 260 9.0 11.0 0.00 0.00 0.00 34 1020.9
20260506203637 54 199 0.0 0.0 0.00 0.00 0.00 36 1020.8
20260506203133 54 157 0.0 0.0 0.00 0.00 0.00 37 1020.8
20260506202632 54 267 0.0 0.0 0.00 0.00 0.00 35 1021.0
20260506202127 54 200 6.0 9.0 0.00 0.00 0.00 36 1021.1
20260506201625 54 247 0.0 0.0 0.00 0.00 0.00 37 1021.1
20260506201121 54 246 4.0 7.0 0.00 0.00 0.00 37 1021.1
20260506200618 55 233 4.0 7.0 0.00 0.00 0.00 36 1021.3
20260506200115 54 233 3.0 6.0 0.00 0.00 0.00 35 1021.2
20260506195611 56 14 8.0 11.0 0.00 0.00 0.00 34 1021.4
20260506195108 54 233 0.0 0.0 0.00 0.00 0.00 36 1021.3
20260506194605 55 249 3.0 6.0 0.00 0.00 0.00 35 1021.4
20260506194101 55 287 5.0 9.0 0.00 0.00 0.00 36 1021.2
20260506193559 53 230 1.0 2.0 0.00 0.00 0.00 36 1021.4
20260506193056 53 185 0.0 0.0 0.00 0.00 0.00 38 1021.3
20260506192553 54 217 0.0 1.0 0.00 0.00 0.00 35 1021.6
20260506192049 54 249 3.0 7.0 0.00 0.00 0.00 36 1021.2
20260506191545 52 189 0.0 0.0 0.00 0.00 0.00 38 1021.5
20260506191041 51 214 0.0 0.0 0.00 0.00 0.00 39 1021.7
20260506190539 53 208 0.0 1.0 0.00 0.00 0.00 36 1021.7
20260506190036 54 235 5.0 7.0 0.00 0.00 0.00 38 1021.9
20260506185533 54 238 1.0 2.0 0.00 0.00 0.00 35 1021.9
20260506185030 53 251 2.0 3.0 0.00 0.00 0.00 35 1021.9
20260506184527 52 265 4.0 6.0 0.00 0.00 0.00 38 1021.7
20260506184024 54 208 1.0 1.0 0.00 0.00 0.00 40 1022.0
20260506183520 51 232 0.0 0.0 0.00 0.00 0.00 42 1022.0
20260506183017 52 209 3.0 7.0 0.00 0.00 0.00 40 1022.3
20260506182514 52 67 0.0 0.0 0.00 0.00 0.00 41 1022.2
20260506182011 52 138 0.0 0.0 0.00 0.00 0.00 40 1022.3
20260506181509 52 185 0.0 0.0 0.00 0.00 0.00 40 1022.4
20260506181006 52 221 0.0 0.0 0.00 0.00 0.00 40 1022.4
20260506180502 51 317 1.0 1.0 0.00 0.00 0.00 41 1022.6
20260506175959 50 351 0.0 0.0 0.00 0.00 0.00 43 1022.6
20260506175455 51 230 0.0 0.0 0.00 0.00 0.00 41 1022.8
20260506174952 50 298 0.0 0.0 0.00 0.00 0.00 43 1022.6
20260506174450 52 42 0.0 0.0 0.00 0.00 0.00 42 1022.8
20260506173946 51 234 0.0 1.0 0.00 0.00 0.00 41 1022.6
20260506173444 50 255 0.0 0.0 0.00 0.00 0.00 41 1022.7
20260506172940 50 242 2.0 5.0 0.00 0.00 0.00 41 1022.7
20260506172438 51 259 0.0 0.0 0.00 0.00 0.00 41 1022.7
20260506171934 51 52 0.0 0.0 0.00 0.00 0.00 43 1022.7
20260506171431 50 255 4.0 7.0 0.00 0.00 0.00 42 1022.5
20260506170924 51 343 0.0 0.0 0.00 0.00 0.00 44 1022.6
20260506170419 51 183 0.0 0.0 0.00 0.00 0.00 43 1022.7
20260506165913 51 193 2.0 2.0 0.00 0.00 0.00 42 1022.7
20260506165411 49 216 0.0 0.0 0.00 0.00 0.00 43 1022.9
20260506164907 50 256 0.0 0.0 0.00 0.00 0.00 42 1022.8
20260506164403 50 202 0.0 0.0 0.00 0.00 0.00 43 1022.8
20260506163901 51 214 1.0 2.0 0.00 0.00 0.00 43 1022.8
20260506163356 51 187 0.0 2.0 0.00 0.00 0.00 41 1022.8
20260506162851 49 22 0.0 0.0 0.00 0.00 0.00 45 1022.7
20260506162349 50 8 2.0 3.0 0.00 0.00 0.00 45 1022.7
20260506161847 48 138 0.0 0.0 0.00 0.00 0.00 45 1022.8
20260506161344 49 5 2.0 3.0 0.00 0.00 0.00 47 1022.8
20260506160841 47 292 0.0 0.0 0.00 0.00 0.00 47 1022.6
20260506160339 48 338 0.0 0.0 0.00 0.00 0.00 47 1022.5
20260506155837 48 338 0.0 0.0 0.00 0.00 0.00 49 1022.6
20260506155333 49 307 0.0 0.0 0.00 0.00 0.00 48 1022.6
20260506153450 49 328 0.0 0.0 0.00 0.00 0.00 47 1022.5
20260506152948 48 258 0.0 1.0 0.00 0.00 0.00 48 1022.4
20260506152445 48 56 0.0 1.0 0.00 0.00 0.00 48 1022.5
20260506151943 49 314 0.0 0.0 0.00 0.00 0.00 48 1022.5
20260506151440 48 350 0.0 1.0 0.00 0.00 0.00 49 1022.3
20260506150938 48 346 0.0 0.0 0.00 0.00 0.00 47 1022.4
20260506150433 48 20 0.0 0.0 0.00 0.00 0.00 48 1022.4
20260506145931 47 17 0.0 0.0 0.00 0.00 0.00 47 1022.6
20260506145427 46 65 0.0 0.0 0.00 0.00 0.00 45 1022.6
20260506144925 46 28 0.0 0.0 0.00 0.00 0.00 46 1022.7
20260506144421 47 45 1.0 2.0 0.00 0.00 0.00 45 1022.6
20260506143920 47 207 0.0 0.0 0.00 0.00 0.00 47 1022.8
20260506143416 46 63 0.0 0.0 0.00 0.00 0.00 50 1022.7
20260506142914 48 123 0.0 0.0 0.00 0.00 0.00 50 1022.9
20260506142412 47 124 0.0 0.0 0.00 0.00 0.00 51 1022.6
20260506141910 47 105 0.0 0.0 0.00 0.00 0.00 51 1022.8
20260506141408 47 114 0.0 0.0 0.00 0.00 0.00 52 1022.6
20260506140906 45 145 0.0 0.0 0.00 0.00 0.00 55 1022.7
20260506140402 45 95 0.0 0.0 0.00 0.00 0.00 54 1022.7